Regional Weather Roundup
Issued by NWS

Home | Current Version | Previous Version | Text Only | Print | Product List | Glossary On
Versions: 1 2 3 4 5 6 7 8 9 10 11 12 13 14 15 16 17 18 19 20 21 22 23 24 25 26 27 28 29 30 31 32 33 34 35 36 37 38 39 40 41 42 43 44 45 46 47 48 49 50
000
ASUS45 KREV 211810
RWRNV
NEVADA REGIONAL WEATHER ROUNDUP
NATIONAL WEATHER SERVICE RENO NV
1000 AM PST TUE FEB 21 2017

NOTE: "FAIR" INDICATES FEW OR NO CLOUDS BELOW 12,000 FEET WITH NO
SIGNIFICANT WEATHER AND/OR OBSTRUCTIONS TO VISIBILITY.

NVZ001-003-004-211900-
WESTERN NEVADA

CITY           SKY/WX    TMP DP  RH WIND       PRES   REMARKS
RENO           LGT SNOW  34  34 100 E6        30.10R FOG
6HR MIN TEMP:  33; 6HR MAX TEMP:  40; 6HR PCP:  0.70;

CARSON CITY    LGT RAIN  36  32  87 S6        30.12R
MINDEN         LGT RAIN  37  36  93 W7        30.11R
PYRAMID LAKE     N/A     41 N/A N/A S9          N/A
FALLON         PTSUNNY   52  34  50 W22G29    30.05R
6HR MIN TEMP:  42; 6HR MAX TEMP:  52;

LOVELOCK       CLOUDY    42  36  79 W22       30.08R
6HR MIN TEMP:  36; 6HR MAX TEMP:  45;

HAWTHORNE      SUNNY     55  25  30 SW26G35   30.04R
$$

NVZ002-CAZ072-073-211900-
NORTHERN AND CENTRAL SIERRA

CITY           SKY/WX    TMP DP  RH WIND       PRES   REMARKS
S. LAKE TAHOE  HVY SNOW  31  29  92 SW12G21   30.10R VSB<1/4
6HR MIN TEMP:  31; 6HR MAX TEMP:  36; 6HR PCP:  0.17;

TRUCKEE        SNOW      30  28  93 SW7       30.09R VSB 1/4
SQUAW VLY 8000   N/A     32  32 100 SW17        N/A
SUSANVILLE     MOSUNNY   41  32  70 SW15G24   30.05R
MAMMOTH LAKES  LGT SNOW  34  31  90 N12       30.15S
6HR MIN TEMP:  33; 6HR MAX TEMP:  39; 6HR PCP:  0.01;

BRIDGEPORT     LGT SNOW  34  25  69 SW10      30.05S
$$

NVZ030-031-036-211900-
NORTHERN NEVADA

CITY           SKY/WX    TMP DP  RH WIND       PRES   REMARKS
ELKO           PTSUNNY   53  33  46 SW21G29   29.97F
6HR MIN TEMP:  42; 6HR MAX TEMP:  53;

WINNEMUCCA     LGT RAIN  36  34  92 SW16G25   30.06S FOG
6HR MIN TEMP:  35; 6HR MAX TEMP:  46; 6HR PCP:  0.08;

WENDOVER       SUNNY     59  32  36 SW22      29.99F
$$

NVZ035-037-211900-
CENTRAL NEVADA

CITY           SKY/WX    TMP DP  RH WIND       PRES   REMARKS
ELY            SUNNY     48  32  53 S31G43    30.10S
6HR MIN TEMP:  38; 6HR MAX TEMP:  48;

EUREKA           N/A     51  25  36 S21G33    30.02F
6HR MIN TEMP:  35; 6HR MAX TEMP:  51;

$$

NVZ013-014-211900-
SOUTH CENTRAL NEVADA

CITY           SKY/WX    TMP DP  RH WIND       PRES   REMARKS
TONOPAH        MOSUNNY   47  38  71 S25       30.14F
6HR MIN TEMP:  35; 6HR MAX TEMP:  47;

$$

NVZ017-020-022-211900-
SOUTHERN NEVADA

CITY           SKY/WX    TMP DP  RH WIND       PRES   REMARKS
LAS VEGAS      CLOUDY    67  32  27 SW12G21   30.22S
6HR MIN TEMP:  58; 6HR MAX TEMP:  67;

N. LAS VEGAS   CLOUDY    60  47  61 W5        30.22S
6HR MIN TEMP:  52; 6HR MAX TEMP:  62;

NELLIS AFB     CLOUDY    61  47  59 E14       30.23R
6HR MIN TEMP:  54; 6HR MAX TEMP:  62;

HENDERSON      CLOUDY    66  41  40 SW17      30.26R
6HR MIN TEMP:  54; 6HR MAX TEMP:  66;

MERCURY        CLOUDY    62  33  33 SW26G35   30.21R
6HR MIN TEMP:  56; 6HR MAX TEMP:  63;

$$



USA.gov is the U.S. government's official web portal to all federal, state and local government web resources and services.